CAPE
165 175 267 272 285 190 261 402 489 672 419 507 680 692 811 1024 1271 1532 1785 1895 1937 1661 1530 1617 1793 1832 1770 1712 1772 1559 1451 1426 1627 1731 1456 1347 1193 756 733 547 465 295 899
198 253 334 289 283 322 299 378 570 628 708 728 561 779 845 995 1394 1587 1764 1930 1881 1785 1594 1797 1851 1815 1644 1575 1593 1525 991 1265 1519 1402 1351 1232 941 1147 967 731 260 587 1065
204 339 529 749 817 820 580 618 593 752 796 781 935 927 841 1186 1591 1843 1966 1969 1925 1948 1843 1790 1650 1586 1622 1654 1547 1252 808 980 859 1194 805 489 819 1136 637 759 694 945 892
182 402 414 659 1012 955 833 864 838 973 1071 1348 1413 1161 1332 1740 1905 1961 1758 1605 1770 1851 1729 1738 1660 1661 1581 1556 1406 1051 892 937 1012 824 815 738 559 1074 500 905 923 1048 434
629 737 868 959 1270 1266 1169 1003 1164 1412 1559 1537 1467 1404 1865 1918 1795 1790 1583 1500 1710 1753 1731 1639 1480 1489 1494 1602 1437 1269 1078 604 1045 883 1260 1023 758 636 424 1085 682 872 719
840 900 956 1144 1192 1221 1291 1033 1363 1407 1525 1602 1563 1751 1744 1601 1703 1534 1532 1689 1681 1603 1550 1485 1431 1418 1394 1368 1378 1316 1359 958 376 977 1137 905 707 532 547 1102 392 419 1055
832 1126 1134 915 1177 1301 1515 1388 1349 1345 1467 1699 1655 1609 1705 1730 1761 1649 1767 1717 1593 1489 1458 1472 1434 1489 1425 1324 1326 1221 1180 1132 1020 1114 1259 1238 962 621 412 927 389 467 1070
819 1137 1190 1132 1340 1247 1265 1358 1259 1289 1451 1475 1476 1571 1546 1701 1558 1601 1491 1356 1418 1521 1589 1601 1666 1379 1582 1425 1286 1175 1119 864 1204 1282 981 1341 810 730 747 653 964 907 1040
1036 1100 1273 1408 1672 1388 1435 1589 1747 1863 1786 1642 1781 1774 1723 1627 1579 1440 1422 1404 1526 1676 1827 1942 1531 959 924 1019 996 971 1009 1016 1366 1473 1072 1268 848 824 1096 749 766 1051 697
928 1217 1634 1587 1412 1136 1315 1739 1753 1730 1844 1964 2024 1903 1757 1614 1325 1337 1566 1228 1263 1554 1537 1580 1207 843 861 952 1007 851 799 861 1558 1600 1472 1148 810 966 846 991 610 758 825
1130 1254 1362 1374 1307 1394 1406 1344 1545 1682 1615 1818 1963 1885 1593 1346 1462 1559 1388 857 735 1079 1259 1521 1146 907 972 1197 1123 1218 1124 1429 1579 1525 1438 682 636 984 1089 947 716 1149 827
790 1076 1095 1177 1092 1322 1068 1352 1420 1325 1063 1392 1564 1834 1650 1509 1509 1440 1231 969 1223 1428 1392 1250 1036 1042 1225 1454 1535 1212 1265 1291 1610 1621 1440 837 831 1186 1291 1065 603 801 1138
713 868 1196 1533 1683 1480 1427 1564 1544 1400 1219 1475 1755 1704 1705 1469 1451 1522 1510 1567 1602 1296 1581 1529 1545 1479 1636 1539 1365 1357 1366 1371 1183 1277 1166 897 965 905 1039 1515 949 1039 649
644 793 1019 1261 1627 1682 1405 1192 1322 1191 1266 1229 1206 1371 1303 1184 1364 1356 1459 1349 1473 1610 1422 1547 1496 1714 1643 1646 1627 1597 1550 1599 1379 1433 1361 912 1033 898 982 1191 1187 1067 817
598 750 1109 1325 1415 1687 1706 1196 965 1208 982 1137 1116 1061 1002 980 1226 1186 1512 1101 1115 1512 1370 1193 1568 1623 1596 1554 1634 1524 1398 1438 1509 1336 1321 914 1155 1369 1047 913 953 1273 1023
756 754 1070 1320 1540 1706 1506 1580 1325 1360 1261 1264 1232 1055 931 1033 1302 1141 1278 1281 987 1441 1531 1229 1213 1354 1527 1441 1400 1474 1322 1148 1056 1131 1174 1358 780 1176 947 737 680 707 1062
669 729 711 931 1258 1360 1197 1190 1374 1478 1489 1308 1274 1502 1474 1032 1467 1214 1163 970 1282 1418 1364 1383 1157 1391 1146 1242 1241 849 728 567 425 512 621 924 1200 884 1014 688 545 683 600
733 605 699 617 823 1070 1087 1192 1416 1477 1464 1497 1162 1795 1749 1590 1592 1607 1412 711 1302 1202 1276 1083 1146 1126 1074 868 809 640 503 413 367 374 406 470 532 809 1096 933 956 829 703
974 758 761 850 976 978 1151 1371 1612 1875 1824 1672 1764 1093 1174 1271 1296 1705 1106 1046 1081 1265 767 1036 918 639 413 360 228 171 274 312 350 316 528 774 653 630 835 1099 816 832 910
1115 1102 978 1066 1283 1390 1456 1569 1645 1820 1849 1897 1869 1823 1551 1059 1043 958 1016 881 1315 1156 852 446 308 315 223 185 99 51 189 304 229 377 663 280 683 672 1082 1336 1365 1285 912
1137 1091 961 1056 1326 1595 1355 1213 1377 1441 1774 1867 1833 1374 1465 1129 1058 1083 1057 1027 1110 829 447 359 214 144 93 339 83 0 41 181 149 272 350 19 20 50 304 746 1198 1290 1321
1074 1000 1032 1040 1211 1404 1624 1536 1494 1686 1741 1809 1852 1871 1882 1871 1710 1407 1346 1101 842 526 398 140 102 0 47 315 7 10 0 69 164 195 64 0 0 1 0 0 89 496 874
927 1042 1055 1101 1111 1250 1510 1708 1548 1468 1411 1454 1641 1742 1691 1721 1752 1649 1231 914 745 472 76 28 49 79 0 45 35 20 0 0 0 54 156 0 0 0 0 0 0 0 0
744 975 1030 1121 1148 1282 1584 1489 1390 1316 1432 1578 1438 1389 1790 1787 1601 1446 1037 824 478 103 3 39 18 0 0 0 28 63 30 1 0 0 0 0 0 0 0 0 0 0 0
527 757 870 1044 1047 1294 1527 1431 1406 1409 1628 1727 969 622 791 1046 1459 1504 1109 398 25 6 77 0 0 0 3 0 7 2 19 1 0 0 0 0 0 0 0 0 0 0 0
398 521 780 914 857 1153 1384 1376 1325 1385 1652 1285 799 384 436 371 262 201 161 35 57 76 16 0 0 0 2 7 0 0 0 0 0 0 0 0 0 0 0 0 0 0 0
CIN
-2 0 -1 -4 -11 -22 -14 -6 -5 -5 -21 -21 -9 -13 -12 -31 -37 -11 -17 -11 -2 -27 -31 -19 -8 -2 -6 -6 -2 -8 -6 0 0 0 0 0 0 -2 0 -2 -9 -17 0
-11 -3 0 -1 -3 -11 -22 -20 -5 -35 -13 -28 -19 -8 -25 -30 -25 -20 -14 -4 -8 -11 -19 -2 -1 0 -6 -7 -3 -3 -9 -5 0 -1 0 0 -2 0 0 0 -16 -2 0
-10 -10 0 0 0 0 -6 -7 -12 -11 -12 -13 -8 -15 -28 -19 -12 -7 -2 -2 -1 0 0 -1 -3 -5 -8 -5 -4 -9 -11 -7 -14 -2 -13 -3 -1 0 -4 -1 0 0 0
-18 -5 -8 -4 0 0 -2 -3 -20 -6 0 0 -3 -10 -6 -1 0 -4 -19 -18 -6 -2 -8 -2 -5 -3 -8 -6 -6 -14 -12 -8 -3 -11 -2 0 -1 0 -9 0 -1 0 -13
0 0 0 -1 0 0 -1 -4 0 0 0 0 -1 -4 0 0 -10 -12 -18 -20 -8 -7 -5 -4 -7 -8 -13 -5 -11 -5 -12 -25 -9 -8 0 0 0 -6 -16 0 -5 -1 -1
0 0 0 0 0 0 0 0 0 0 0 0 -1 0 -1 -16 -15 -22 -19 -13 -9 -10 -8 -7 -10 -10 -12 -10 -10 -12 -6 -20 -82 -10 0 -2 -1 -19 -13 0 -14 -8 0
-1 0 0 -2 -1 -1 -1 0 0 -1 0 0 -1 -6 -8 -14 -11 -15 -10 -8 -9 -15 -13 -8 -10 -9 -8 -10 -8 -14 -18 -14 -10 -8 -1 0 0 -17 -29 -1 -11 -8 0
-5 0 0 -1 -1 -2 0 -1 -7 -6 -3 -12 -15 -15 -24 -22 -26 -22 -22 -26 -19 -11 -12 -10 -6 -7 -5 -9 -11 -11 -17 -23 -10 -7 -12 0 -10 -8 -1 -4 0 0 0
-1 0 0 0 0 0 0 0 0 0 -2 -8 -5 -14 -21 -21 -22 -23 -21 -26 -20 -7 -4 -2 -8 -25 -24 -21 -25 -17 -24 -25 -2 -3 -11 -2 -22 -6 0 -2 -4 0 -2
-5 0 0 0 0 -3 0 0 0 0 0 0 0 -6 -13 -18 -31 -30 -17 -31 -29 -15 -12 -9 -13 -25 -26 -27 -28 -26 -21 -31 -13 -12 -14 -9 -26 -9 -5 -3 -8 -1 0
-1 0 -1 -1 -4 -3 -1 -3 -2 0 -7 -4 0 -5 -15 -17 -16 -16 -23 -49 -55 -36 -23 -14 -17 -22 -21 -14 -28 -20 -25 -2 -11 -6 -10 -57 -50 -9 -1 -4 0 0 -2
-29 -11 -9 -7 -12 -8 -16 -8 -6 -8 -18 -5 -2 -4 -10 -18 -19 -26 -29 -46 -17 -27 -24 -21 -19 -18 -13 -4 -4 -14 -2 -9 -9 -12 -14 -58 -53 -20 -1 -1 -24 -5 0
-50 -32 -16 -3 0 -5 -6 -4 -4 -10 -16 -7 -6 -12 -15 -18 -20 -14 -16 -12 -11 -18 -4 -8 -9 -5 -8 -8 -11 -6 -8 -5 -7 -11 -19 -59 -56 -39 -15 0 -7 -4 -11
-86 -61 -39 -21 -2 -1 -9 -18 -13 -23 -21 -21 -27 -30 -28 -26 -20 -21 -19 -21 -22 -11 -10 -11 -6 -9 -10 -11 -10 -10 -6 -3 0 -6 -15 -52 -42 -45 -28 -7 -4 -2 -9
-122 -85 -47 -25 -16 -3 -3 -21 -34 -24 -35 -33 -32 -42 -41 -34 -30 -32 -20 -15 -10 -14 -9 -10 -8 -10 -10 -8 -8 -14 -12 -11 -8 -3 -7 -48 -48 -35 -22 -12 -8 -1 -3
-104 -94 -49 -32 -16 -8 -17 -15 -29 -25 -26 -30 -37 -41 -57 -46 -32 -44 -19 -14 -9 -13 -11 -12 -15 -13 -10 -14 -7 -4 -14 -21 -29 -28 -12 -16 -53 -38 -24 -18 -19 -14 -2
-126 -97 -100 -66 -38 -33 -47 -43 -27 -23 -22 -29 -33 -34 -38 -54 -36 -27 -15 -12 -10 -15 -20 -18 -7 -8 -5 -2 -3 -19 -22 -45 -61 -55 -48 -28 -19 -42 -28 -33 -30 -22 -27
-126 -147 -96 -90 -69 -58 -61 -53 -33 -30 -25 -25 -14 -25 -32 -37 -37 -31 -27 -16 -15 -23 -16 -18 -10 -3 -2 -4 -5 -30 -82 -117 -127 -100 -65 -45 -34 -19 -21 -29 -28 -34 -32
-103 -117 -103 -75 -58 -66 -63 -50 -35 -21 -17 -15 -18 -17 -10 -22 -17 -28 -14 -11 -45 -21 -16 -17 -13 -29 -64 -88 -160 -223 -187 -185 -156 -156 -53 -24 -29 -29 -12 -12 -32 -38 -29
-74 -79 -83 -60 -59 -58 -55 -47 -32 -17 -14 -13 -17 -18 -17 -12 -8 -7 -19 -17 -30 -15 -27 -57 -99 -97 -129 -158 -248 -310 -203 -161 -212 -134 -20 -119 -14 -23 -6 -14 -9 -3 -34
-62 -70 -80 -65 -54 -48 -59 -49 -29 -22 -11 -13 -15 -9 -8 -8 -12 -12 -22 -40 -33 -22 -46 -71 -134 -164 -189 -70 -222 -2 -304 -190 -232 -173 -130 -417 -414 -272 -52 -17 -2 -1 -1
-69 -78 -78 -67 -48 -49 -43 -44 -30 -25 -12 -11 -10 -12 -13 -13 -14 -11 -17 -26 -30 -47 -70 -167 -184 0 -259 -95 -288 -342 0 -202 -138 -152 -281 0 0 -103 0 0 -116 -28 -5
-98 -86 -81 -72 -56 -49 -54 -37 -43 -37 -31 -19 -12 -8 -13 -18 -16 -23 -31 -29 -36 -52 -154 -231 -205 -194 0 -251 -209 -99 0 0 0 -232 -164 0 0 0 0 0 0 0 0
-138 -110 -97 -78 -67 -56 -66 -56 -49 -33 -11 -8 -17 -18 -8 -17 -22 -25 -35 -36 -67 -174 -299 -211 -292 -58 0 0 -235 -166 -136 0 0 0 0 0 0 0 0 0 0 0 0
-174 -164 -115 -94 -103 -79 -71 -71 -64 -49 -18 -11 -72 -105 -77 -62 -33 -23 -40 -99 -248 -283 -151 0 0 0 -303 0 -297 -53 -253 0 0 0 0 0 0 0 0 0 0 0 0
-225 -211 -166 -159 -153 -124 -117 -108 -110 -86 -49 -69 -112 -144 -132 -156 -180 -176 -174 -210 -187 -140 -262 0 0 0 -297 -228 0 0 0 0 0 0 0 0 0 0 0 0 0 0 0
Wind_Speed
14 11 17 20 40 40 38 37 36 33 33 33 33 33 32 30 27 23 21 21 22 20 18 10 7 8 5 6 9 13 17 19 21 22 20 18 15 15 11 12 16 9 9
19 13 13 34 35 38 37 35 33 34 34 34 33 32 31 29 25 23 23 21 21 19 17 11 7 6 6 6 6 9 15 20 20 19 20 18 15 14 13 15 15 8 12
33 32 35 35 35 34 33 33 34 35 34 34 33 31 30 29 25 20 17 15 15 17 13 9 7 6 7 7 7 7 9 15 20 19 18 14 16 16 10 17 13 9 8
32 30 32 33 33 33 34 34 34 34 33 33 32 31 28 26 24 19 18 17 16 15 12 9 8 8 9 9 8 8 8 8 15 19 17 15 18 18 16 18 7 13 10
31 32 32 33 33 33 33 33 33 33 33 32 31 29 27 25 22 20 18 15 15 12 10 9 9 10 10 10 10 9 11 10 12 16 18 18 20 21 18 21 23 14 1
33 33 33 33 32 32 33 33 34 33 32 31 30 28 25 22 20 18 17 16 13 11 11 9 9 11 12 11 10 10 11 13 13 10 17 19 20 21 20 21 20 12 9
31 32 32 32 31 31 31 32 32 30 29 29 28 26 24 21 18 17 16 14 14 12 10 9 10 10 12 12 12 11 11 12 13 19 17 18 19 20 20 21 20 14 19
28 30 30 31 30 30 31 31 29 28 28 27 26 25 23 22 20 18 17 15 13 12 10 10 10 10 10 11 11 14 13 13 16 18 16 16 17 18 19 19 20 19 10
24 26 29 30 30 30 30 28 28 27 26 25 24 23 22 20 18 16 14 14 12 11 10 10 9 9 9 10 13 13 12 14 17 17 17 15 14 16 17 18 18 19 17
24 28 30 30 30 29 28 27 27 26 25 24 23 22 20 18 17 15 13 13 11 11 11 9 10 16 20 20 19 19 19 18 17 17 17 16 13 13 13 14 16 16 17
30 29 29 29 29 28 27 26 25 25 24 22 21 20 18 16 15 14 12 11 11 10 10 10 10 13 17 19 20 20 19 19 18 17 17 15 13 11 11 11 13 15 15
30 30 29 29 28 28 26 25 24 23 22 20 19 18 17 15 14 13 12 11 10 10 10 10 10 12 13 19 20 20 20 20 18 18 18 16 12 10 9 10 9 11 13
30 29 29 28 27 26 25 24 22 21 20 19 19 18 16 15 14 13 12 11 11 10 10 10 10 12 14 16 19 21 19 17 18 17 19 17 13 10 8 8 8 7 9
30 29 28 28 27 26 24 22 21 20 19 18 18 17 16 16 15 14 13 12 11 11 10 9 10 10 9 8 8 10 16 16 16 17 17 16 12 9 7 8 6 7 6
29 29 28 27 26 25 24 22 20 19 19 18 18 17 17 16 15 14 13 12 11 11 10 10 9 8 7 7 6 7 7 9 12 11 14 16 10 8 7 7 8 7 14
29 28 27 27 25 24 23 21 20 19 19 18 18 17 16 15 14 14 13 12 11 10 10 9 8 7 6 5 5 6 6 6 6 9 11 14 12 9 7 6 6 4 1
29 28 27 26 25 24 23 21 20 19 19 18 17 16 16 15 15 14 13 12 10 9 8 7 5 6 5 5 5 5 6 6 5 4 5 7 11 11 10 6 8 5 2
27 27 26 24 23 23 21 20 20 19 18 17 16 15 15 14 13 12 10 9 8 7 6 5 7 7 8 9 7 5 5 4 4 4 4 4 5 6 10 7 9 4 3
26 25 24 23 22 20 19 19 19 18 17 16 15 13 12 12 11 9 9 7 7 7 6 9 10 10 11 8 6 3 6 9 11 12 13 12 10 8 6 7 8 9 4
26 25 23 21 21 20 17 17 18 17 16 14 14 13 11 9 8 8 6 7 8 8 10 14 16 16 15 15 12 8 12 15 18 16 18 18 18 18 16 11 7 8 13
24 24 24 21 21 18 17 18 17 16 14 12 10 9 8 8 6 5 7 9 8 9 13 16 18 17 17 18 19 17 15 13 17 16 17 19 19 19 19 19 17 12 9
25 25 23 23 22 23 22 17 13 10 9 9 6 5 5 5 5 5 7 8 8 11 13 16 17 18 18 19 18 17 16 14 14 16 17 19 19 19 19 20 19 18 17
26 25 24 23 23 22 19 9 4 7 10 9 7 7 6 6 7 7 8 8 9 12 14 15 17 17 17 17 17 16 14 15 16 14 15 18 18 18 18 19 19 19 20
24 24 23 20 20 20 17 12 9 7 6 7 9 9 9 8 9 8 9 9 10 12 12 14 15 15 15 16 16 15 15 14 15 14 15 16 19 19 19 19 18 19 20
21 19 19 18 18 17 14 12 7 7 4 7 10 10 10 9 8 8 8 9 11 12 13 13 14 14 14 14 14 14 14 14 14 14 15 16 17 18 18 19 19 20 21
18 17 15 17 20 15 13 13 12 8 5 5 7 8 8 9 9 8 8 9 10 12 13 13 13 13 13 13 13 12 13 14 15 14 15 16 17 16 18 16 17 19 22
Wind_Direction
152 95 78 89 124 133 129 125 124 139 140 136 130 127 125 132 143 149 152 141 124 134 139 176 198 190 235 201 166 145 126 123 114 111 116 131 155 163 187 186 178 224 9
163 157 83 98 103 119 119 128 133 128 128 125 127 128 126 133 145 148 135 140 132 135 140 171 197 214 271 259 219 172 143 116 114 125 111 122 149 171 174 166 180 229 31
141 141 116 123 127 132 135 132 129 123 123 123 126 131 132 133 142 157 164 170 163 145 163 188 230 244 267 272 268 220 189 143 110 115 120 140 145 150 193 166 159 203 9
145 149 136 131 130 128 127 125 121 123 126 126 124 132 140 140 147 160 160 155 155 156 176 202 242 263 267 275 262 266 240 238 141 110 125 140 133 139 155 151 334 36 17
151 146 143 137 125 123 119 118 121 119 123 127 135 139 142 144 153 153 158 165 163 173 195 229 245 272 267 270 270 270 287 264 298 132 114 114 106 82 148 123 114 38 238
132 141 132 121 115 114 118 120 123 124 126 134 133 136 148 155 158 162 160 160 181 185 187 195 244 268 271 262 247 253 265 304 306 245 116 96 94 76 85 99 78 206 8
116 129 127 121 114 115 115 119 123 118 119 121 122 133 146 157 165 169 169 170 164 178 193 209 234 244 258 257 254 245 239 242 276 12 75 79 80 93 88 110 86 41 96
110 122 120 124 117 115 120 120 120 122 127 127 132 135 138 137 140 141 143 151 155 155 182 212 230 225 222 224 235 271 257 260 302 349 33 75 69 101 103 109 125 100 11
103 110 122 128 126 124 123 122 126 130 132 133 132 133 138 140 143 145 152 164 179 182 190 212 208 197 188 219 268 274 243 275 317 354 26 54 59 93 106 100 107 113 95
111 123 137 139 134 129 125 127 126 129 130 131 133 137 140 143 147 151 160 162 189 203 203 182 142 76 31 6 346 3 343 28 317 331 359 12 25 66 59 83 104 113 119
141 143 143 141 137 137 139 138 139 141 144 144 144 147 144 145 148 152 154 160 172 181 181 180 144 91 44 15 357 349 1 350 358 351 1 6 31 81 61 60 97 116 117
144 150 150 151 151 152 154 152 152 151 151 150 149 150 152 154 156 161 157 159 166 160 168 170 167 113 87 21 14 12 357 349 2 353 350 359 24 56 66 59 62 94 116
153 157 161 160 160 158 159 157 159 157 155 157 158 159 163 169 167 165 168 160 164 159 155 159 155 118 90 60 21 4 5 13 7 5 344 353 8 34 47 30 38 41 94
163 166 168 168 167 166 163 159 159 156 157 159 162 167 170 174 175 177 181 175 167 164 159 157 160 158 145 137 117 85 34 27 15 5 360 357 13 34 43 11 6 17 12
169 171 172 172 172 168 166 163 161 161 163 169 171 172 173 177 181 179 181 178 173 164 170 164 151 156 167 158 138 131 111 71 44 42 16 7 18 27 26 14 349 331 307
175 173 171 172 170 169 168 164 163 167 168 168 169 170 170 175 178 182 190 183 171 156 165 168 155 156 150 149 134 113 110 110 82 48 21 7 10 9 9 6 2 16 110
179 178 175 171 170 170 168 167 169 169 169 170 174 176 179 179 187 188 190 190 174 150 148 155 131 108 109 118 128 99 93 87 92 114 61 33 6 359 359 348 341 341 13
174 172 172 168 166 166 165 166 171 170 171 178 184 179 181 176 178 174 168 159 144 121 116 104 76 75 54 47 58 73 73 76 88 74 84 105 60 25 356 355 334 330 311
172 170 166 162 162 160 163 165 172 176 178 184 182 174 167 166 167 162 156 136 98 96 87 54 40 34 28 36 45 71 46 37 34 38 40 45 46 53 58 19 352 333 323
177 175 170 166 167 163 154 160 169 176 179 178 179 182 176 164 153 145 96 70 60 58 34 17 10 10 13 15 25 45 33 27 12 23 22 19 20 7 13 30 29 358 326
178 177 176 170 169 160 159 164 170 173 171 169 170 177 169 164 146 84 48 40 42 35 13 7 3 9 10 3 3 12 21 31 17 22 23 11 6 4 2 357 2 9 6
181 180 177 178 174 176 176 163 149 138 141 147 124 97 92 92 97 69 47 52 44 24 13 7 5 0 4 3 8 15 21 29 24 19 14 7 4 4 358 350 348 354 354
183 180 178 178 177 177 171 141 66 8 1 25 47 48 52 57 56 55 57 52 41 22 11 12 9 11 12 15 15 21 34 28 20 25 17 9 8 4 0 355 351 346 343
180 178 178 175 174 175 168 159 149 128 110 57 32 37 41 46 57 62 60 51 39 26 27 20 22 23 22 16 21 29 26 28 21 24 22 15 1 358 355 357 359 355 348
178 177 177 176 175 173 169 167 155 149 99 34 32 33 41 37 43 65 62 51 36 35 26 26 24 24 26 28 28 28 28 26 27 27 16 14 12 6 359 354 352 349 346
180 180 180 178 180 176 175 174 172 162 133 62 54 58 44 40 45 49 54 44 33 27 27 25 24 26 27 31 29 32 27 20 14 15 9 6 1 1 357 357 351 344 336